Weather History for KBNA - September, 2011

Change the Weather History Date:

Saturday, September 24, 2011

  Actual Average Record
Temperature  
Mean Temperature 63 °F 68 °F  
Max Temperature 76 °F 79 °F 94 °F (1961)
Min Temperature 49 °F 57 °F 36 °F (1983)
Degree Days  
Heating Degree Days 2    
Month to date heating degree days 25  
Since 1 July heating degree days 25  
Cooling Degree Days 0    
Month to date cooling degree days 147  
Year to date cooling degree days 1879  
Growing Degree Days 12 (Base 50)    
Moisture  
Dew Point 52 °F    
Average Humidity 68    
Maximum Humidity 93    
Minimum Humidity 43    
Precipitation  
Precipitation 0.01 in 0.12 in 2.86 in (1997)
Month to date precipitation 5.90 2.69  
Year to date precipitation 40.51 34.94  
Snow  
Snow 0.00 in 0.00 in 0.00 in (2002)
Month to date snowfall 0.0 0.0  
Since 1 July snowfall 0.0 0.0  
Since 1 September snowfall 0.0 0.0  
Snow Depth 0.00 in    
Sea Level Pressure  
Sea Level Pressure 29.99 in    
Wind  
Wind Speed 4 mph (SSE)    
Max Wind Speed 12 mph    
Max Gust Speed 15 mph    
Visibility 9 miles    
Events Rain    
T = Trace of Precipitation, MM = Missing Value Source: NWS Daily Summary

Daily Weather History Graph

Daily Weather History Graph

Search for Another Location

Airport or City:

Trip Planner

Search our weather history database for the weather conditions in past years. The results will help you decide how hot, cold, wet, or windy it might be!

Date:

Astronomy

Sep. 24, 2011 Rise Set
Actual Time 6:36 AM CDT 6:41 PM CDT
Civil Twilight 6:10 AM CDT 7:06 PM CDT
Nautical Twilight 5:40 AM CDT 7:36 PM CDT
Astronomical Twilight 5:10 AM CDT 8:06 PM CDT
Moon 3:16 AM CDT (9/24) 4:43 PM CDT (9/24)
Length of Visible Light 12h 56m
Length of Day
12h 04m
Waning Crescent, 11% of the Moon is Illuminated
Sep 24
Waning Crescent
Sep 27
New
Oct 3
First Quarter
Oct 11
Full
Oct 19
Last Quarter

Hourly Weather History & Observations

Time (CDT) Temp. Dew Point Humidity Pressure Visibility Wind Dir Wind Speed Gust Speed Precip Events Conditions
12:53 AM 51.1 °F 48.9 °F 92% 30.04 in 10.0 mi SSW 3.5 mph - N/A   Clear
1:53 AM 52.0 °F 48.9 °F 89% 30.04 in 10.0 mi Calm Calm - N/A   Clear
2:53 AM 50.0 °F 48.0 °F 93% 30.03 in 7.0 mi Calm Calm - N/A   Partly Cloudy
3:53 AM 51.1 °F 48.9 °F 92% 30.02 in 8.0 mi Calm Calm - N/A   Clear
4:53 AM 50.0 °F 48.9 °F 96% 30.02 in 5.0 mi Calm Calm - N/A   Partly Cloudy
5:53 AM 48.9 °F 46.9 °F 93% 30.02 in 6.0 mi Calm Calm - N/A   Partly Cloudy
6:53 AM 50.0 °F 48.2 °F 94% 30.03 in 4.0 mi Calm Calm - N/A   Scattered Clouds
7:53 AM 53.1 °F 51.1 °F 93% 30.04 in 6.0 mi Calm Calm - N/A   Scattered Clouds
8:53 AM 59.0 °F 53.1 °F 81% 30.04 in 10.0 mi SSE 3.5 mph - N/A   Scattered Clouds
9:53 AM 64.0 °F 53.1 °F 67% 30.04 in 10.0 mi SSE 4.6 mph - N/A   Mostly Cloudy
10:53 AM 66.9 °F 50.0 °F 54% 30.03 in 10.0 mi SE 9.2 mph - N/A   Mostly Cloudy
11:53 AM 70.0 °F 51.1 °F 51% 30.01 in 10.0 mi ESE 9.2 mph - N/A   Mostly Cloudy
12:53 PM 69.8 °F 50.0 °F 49% 30.00 in 10.0 mi SE 4.6 mph - N/A   Mostly Cloudy
1:53 PM 71.1 °F 50.0 °F 47% 29.97 in 10.0 mi SSE 5.8 mph - N/A   Mostly Cloudy
2:53 PM 75.0 °F 51.1 °F 43% 29.94 in 10.0 mi Variable 5.8 mph - N/A   Mostly Cloudy
3:53 PM 73.9 °F 51.1 °F 45% 29.93 in 10.0 mi SSE 10.4 mph - N/A   Mostly Cloudy
4:53 PM 73.9 °F 50.0 °F 43% 29.91 in 10.0 mi SSE 4.6 mph - N/A   Mostly Cloudy
5:53 PM 71.1 °F 53.1 °F 53% 29.93 in 10.0 mi SE 3.5 mph - N/A   Mostly Cloudy
6:53 PM 69.1 °F 55.0 °F 61% 29.94 in 9.0 mi SSE 3.5 mph - 0.01 in Rain Light Rain
7:53 PM 64.0 °F 59.0 °F 84% 29.95 in 10.0 mi South 3.5 mph - 0.00 in   Overcast
8:53 PM 63.0 °F 59.0 °F 87% 29.95 in 10.0 mi South 9.2 mph - N/A   Overcast
9:53 PM 61.0 °F 57.9 °F 90% 29.95 in 10.0 mi South 3.5 mph - N/A   Mostly Cloudy
10:53 PM 61.0 °F 57.0 °F 87% 29.95 in 10.0 mi South 4.6 mph - N/A   Mostly Cloudy
11:53 PM 61.0 °F 57.0 °F 87% 29.94 in 10.0 mi South 3.5 mph - N/A   Mostly Cloudy